Weather History for Marrakech, Morocco

Change the Weather History Date:

Saturday, March 23, 2013

  Actual Average Record
Temperature  
Mean Temperature 58 °F -  
Max Temperature 64 °F 75 °F 96 °F (2001)
Min Temperature 51 °F 52 °F 42 °F (2007)
Degree Days  
Heating Degree Days 8    
Growing Degree Days 8 (Base 50)    
Moisture  
Dew Point 50 °F    
Average Humidity 81    
Maximum Humidity 100    
Minimum Humidity 42    
Precipitation  
Precipitation 0.12 in 0.05 in - ()
Sea Level Pressure  
Sea Level Pressure 29.88 in    
Wind  
Wind Speed 9 mph ()    
Max Wind Speed 22 mph    
Max Gust Speed 33 mph    
Visibility 5.4 miles    
Events Rain    
Averages and records for this station are not official NWS values.
T = Trace of Precipitation, MM = Missing Value Source: Averaged Metar Reports

Daily Weather History Graph

Daily Weather History Graph

Search for Another Location

Airport:

Trip Planner

Search our weather history database for the weather conditions in past years. The results will help you decide how hot, cold, wet, or windy it might be!

Date:

Astronomy

Mar. 23, 2013 Rise Set
Actual Time 6:32 AM WET 6:45 PM WET
Civil Twilight 6:07 AM WET 7:10 PM WET
Nautical Twilight 5:39 AM WET 7:38 PM WET
Astronomical Twilight 5:10 AM WET 8:07 PM WET
Moon 3:10 PM WET (3/23) 3:47 AM WET (3/23)
Length of Visible Light 13h 02m
Length of Day
12h 13m
Waxing Gibbous, 83% of the Moon is Illuminated
Mar 23
Waxing Gibbous
Mar 27
Full
Apr 3
Last Quarter
Apr 10
New
Apr 18
First Quarter

Hourly Weather History & Observations

Time (WET) Temp. Dew Point Humidity Pressure Visibility Wind Dir Wind Speed Gust Speed Precip Events Conditions
12:00 AM 57 °F 51 °F 74% 29.91 in 6 mi West 10.4 mph - -   Mostly Cloudy
12:00 AM 57.2 °F 51.8 °F 82% 29.92 in 6.2 mi West 10.4 mph - N/A   Mostly Cloudy
12:30 AM 57.2 °F 51.8 °F 82% 29.92 in 6.2 mi WNW 6.9 mph - N/A   Scattered Clouds
1:00 AM 57.2 °F 51.8 °F 82% 29.92 in 6.2 mi West 10.4 mph - N/A   Scattered Clouds
1:30 AM 55.4 °F 51.8 °F 88% 29.89 in 6.2 mi West 8.1 mph - N/A   Scattered Clouds
2:00 AM 55.4 °F 51.8 °F 88% 29.89 in 6.2 mi West 6.9 mph - N/A   Scattered Clouds
2:30 AM 55.4 °F 51.8 °F 88% 29.89 in 6.2 mi West 6.9 mph - N/A   Scattered Clouds
3:00 AM 54 °F 51 °F 88% 29.87 in 6 mi West 10.4 mph - -   Overcast
3:00 AM 55.4 °F 51.8 °F 88% 29.86 in 6.2 mi West 9.2 mph - N/A   Scattered Clouds
3:30 AM 53.6 °F 51.8 °F 94% 29.86 in 6.2 mi West 8.1 mph - N/A   Scattered Clouds
4:00 AM 53.6 °F 51.8 °F 94% 29.86 in 6.2 mi West 6.9 mph - N/A   Scattered Clouds
4:30 AM 53.6 °F 51.8 °F 94% 29.86 in 6.2 mi West 8.1 mph - N/A   Scattered Clouds
5:00 AM 51.8 °F 51.8 °F 100% 29.86 in 6.2 mi WSW 4.6 mph - N/A   Scattered Clouds
5:30 AM 51.8 °F 50.0 °F 94% 29.86 in 6.2 mi WSW 4.6 mph - N/A   Scattered Clouds
6:00 AM 51 °F 49 °F 92% 29.87 in 6 mi SW 6.9 mph - -  
6:00 AM 51.8 °F 50.0 °F 94% 29.86 in 6.2 mi West 3.5 mph - N/A   Scattered Clouds
6:30 AM 51.8 °F 50.0 °F 94% 29.86 in 6.2 mi SW 6.9 mph - N/A   Scattered Clouds
7:00 AM 51.8 °F 50.0 °F 94% 29.86 in 6.2 mi SW 3.5 mph - N/A   Scattered Clouds
7:30 AM 55.4 °F 50.0 °F 82% 29.86 in 6.2 mi Variable 2.3 mph - N/A   Scattered Clouds
8:00 AM 57.2 °F 48.2 °F 72% 29.86 in 6.2 mi West 6.9 mph - N/A   Scattered Clouds
8:30 AM 59.0 °F 44.6 °F 59% 29.86 in 6.2 mi West 8.1 mph - N/A   Scattered Clouds
9:00 AM 61 °F 45 °F 45% 29.84 in 6 mi West 5.8 mph - -   Partly Cloudy
9:00 AM 60.8 °F 46.4 °F 59% 29.86 in 6.2 mi West 5.8 mph - N/A   Scattered Clouds
9:30 AM 62.6 °F 42.8 °F 48% 29.86 in 6.2 mi WSW 6.9 mph - N/A   Scattered Clouds
10:00 AM 62.6 °F 39.2 °F 42% 29.86 in 6.2 mi SW 15.0 mph - N/A   Scattered Clouds
10:30 AM 62.6 °F 39.2 °F 42% 29.86 in 5.0 mi West 15.0 mph - N/A   Mostly Cloudy
11:00 AM 62.6 °F 41.0 °F 45% 29.86 in 5.0 mi West 15.0 mph - N/A   Scattered Clouds
11:11 AM 59.0 °F 44.6 °F 59% 29.86 in 5.0 mi WNW 19.6 mph - N/A   Scattered Clouds
11:17 AM 59.0 °F 48.2 °F 67% 29.86 in 5.0 mi WNW 18.4 mph 29.9 mph N/A   Scattered Clouds
11:30 AM 59.0 °F 48.2 °F 67% 29.86 in 5.0 mi WNW 16.1 mph - N/A   Scattered Clouds
11:45 AM 60 °F 50 °F 61% 29.83 in 5 mi NW 11.5 mph - -   Mostly Cloudy
12:00 PM 59.0 °F 50.0 °F 72% 29.86 in 5.0 mi NW 11.5 mph - N/A   Mostly Cloudy
12:07 PM 60.8 °F 50.0 °F 68% 29.83 in 5.0 mi NNW 9.2 mph - N/A   Mostly Cloudy
12:30 PM 62.6 °F 50.0 °F 63% 29.83 in 5.0 mi NW 9.2 mph - N/A   Mostly Cloudy
12:35 PM 64.4 °F 42.8 °F 45% 29.83 in 5.0 mi West 21.9 mph 33.4 mph N/A   Mostly Cloudy
1:00 PM 60.8 °F 50.0 °F 68% 29.86 in 4.3 mi West 21.9 mph - N/A Rain Light Rain Showers
1:30 PM 62.6 °F 51.8 °F 68% 29.83 in 5.0 mi WNW 16.1 mph - N/A Rain Light Rain Showers
2:00 PM 59.0 °F 55.4 °F 88% 29.83 in 5.0 mi West 18.4 mph - N/A Rain Light Rain Showers
2:30 PM 59.0 °F 55.4 °F 88% 29.83 in 3.1 mi West 19.6 mph - N/A Rain Light Rain Showers
3:00 PM 59 °F 51 °F 69% 29.81 in 5 mi West 21.9 mph - - Rain Light Rain Showers
3:30 PM 59.0 °F 51.8 °F 77% 29.83 in 5.0 mi West 20.7 mph 32.2 mph N/A Rain Light Rain Showers
4:00 PM 53.6 °F 53.6 °F 100% 29.86 in 3.1 mi WNW 11.5 mph - N/A Rain Light Rain Showers
4:30 PM 57.2 °F 53.6 °F 88% 29.86 in 3.7 mi West 15.0 mph - N/A Rain Light Rain Showers
5:00 PM 57.2 °F 51.8 °F 82% 29.86 in 5.0 mi West 15.0 mph - N/A Rain Light Rain Showers
5:30 PM 57.2 °F 51.8 °F 82% 29.86 in 5.0 mi West 15.0 mph - N/A Rain Light Rain Showers
5:45 PM 54 °F 52 °F 90% 29.88 in 3 mi 11.5 mph - - Rain Light Rain
6:00 PM 53.6 °F 51.8 °F 94% 29.89 in - North - - N/A Rain Rain
6:30 PM 53.6 °F 51.8 °F 94% 29.89 in - North - - N/A Rain Rain
7:00 PM 51.8 °F 50.0 °F 94% 29.89 in - North - - N/A Rain Rain
7:30 PM 51.8 °F 50.0 °F 94% 29.92 in - North - - N/A Rain Rain
8:00 PM 51.8 °F 50.0 °F 94% 29.92 in - North - - N/A Rain Rain
8:30 PM 51.8 °F 50.0 °F 94% 29.92 in 3.7 mi WSW 5.8 mph - N/A Rain Light Rain
8:47 PM 52 °F 51 °F 95% 29.95 in 5 mi WSW 5.8 mph - - Rain Light Rain
9:00 PM 51.8 °F 51.8 °F 100% 29.95 in 5.0 mi WSW 5.8 mph - N/A   Mostly Cloudy
9:30 PM 51.8 °F 51.8 °F 100% 29.95 in 5.0 mi WSW 9.2 mph - N/A   Mostly Cloudy
10:00 PM 51.8 °F 51.8 °F 100% 29.95 in 5.0 mi WSW 8.1 mph - N/A   Mostly Cloudy
10:30 PM 51.8 °F 51.8 °F 100% 29.95 in 6.2 mi WSW 6.9 mph - N/A   Mostly Cloudy
11:00 PM 51.8 °F 51.8 °F 100% 29.98 in 6.2 mi WSW 6.9 mph - N/A   Mostly Cloudy
11:30 PM 51.8 °F 50.0 °F 94% 29.98 in 6.2 mi WSW 5.8 mph - N/A   Mostly Cloudy